^^
Saratoga-Weather Station Historical Data
Daily Summary for April 19, 2020 Units:  Metric    English   Both
Daily Weekly Monthly Yearly Custom
  High: Low: Average:
Temperature: 26.5 °C 9.6 °C 19.4 °C
Dew Point: 11.9 °C 3.8 °C 7.6 °C
Humidity: 78% 27% 50%
Wind Speed: 14.3km/h 0km/h 2.9km/h
Wind Gust: 19.3km/h - -
Wind- - WSW
Pressure: 1022.0 hPa 1018.3 hPa -
Precipitation: 0.0 mm    
Historical Graphs
 
 
Tabular Data for April 19, 2020
Time Temperature Dew Point Pressure Wind Wind Speed Wind Gust Humidity Rainfall Rate (Hourly) solar
00:01 16.9 °C 11 °C 1021.7 hPa WNW 4.7 km/h 8 km/h 68% 0.0 mm 0 W/m2
00:06 16.8 °C 10.6 °C 1021.7 hPa West 4.7 km/h 9.7 km/h 67% 0.0 mm 0 W/m2
00:11 16.8 °C 10.4 °C 1021.7 hPa West 3.2 km/h 6.4 km/h 66% 0.0 mm 0 W/m2
00:16 16.9 °C 10.3 °C 1021.7 hPa WNW 4.7 km/h 6.4 km/h 65% 0.0 mm 0 W/m2
00:21 16.9 °C 10 °C 1021.7 hPa WSW 4.7 km/h 8 km/h 64% 0.0 mm 0 W/m2
00:26 16.9 °C 9.8 °C 1021.7 hPa West 4.7 km/h 9.7 km/h 63% 0.0 mm 0 W/m2
00:31 16.9 °C 9.6 °C 1021.7 hPa West 4.7 km/h 9.7 km/h 62% 0.0 mm 0 W/m2
00:36 16.9 °C 9.3 °C 1022.0 hPa West 4.7 km/h 6.4 km/h 61% 0.0 mm 0 W/m2
00:41 16.8 °C 9.2 °C 1021.7 hPa WSW 4.7 km/h 6.4 km/h 61% 0.0 mm 0 W/m2
00:46 16.8 °C 9.2 °C 1021.7 hPa WNW 3.2 km/h 6.4 km/h 61% 0.0 mm 0 W/m2
00:51 16.7 °C 9.1 °C 1021.7 hPa West 6.4 km/h 8 km/h 61% 0.0 mm 0 W/m2
00:56 16.6 °C 9 °C 1021.7 hPa West 4.7 km/h 6.4 km/h 61% 0.0 mm 0 W/m2
01:01 16.6 °C 8.6 °C 1021.7 hPa WNW 4.7 km/h 6.4 km/h 59% 0.0 mm 0 W/m2
01:07 16.6 °C 8.8 °C 1021.7 hPa West 4.7 km/h 9.7 km/h 60% 0.0 mm 0 W/m2
01:12 16.5 °C 8.5 °C 1021.7 hPa West 6.4 km/h 6.4 km/h 59% 0.0 mm 0 W/m2
01:17 16.4 °C 8.1 °C 1021.7 hPa West 1.4 km/h 1.6 km/h 58% 0.0 mm 0 W/m2
01:22 16.3 °C 8.5 °C 1021.7 hPa Calm     60% 0.0 mm 0 W/m2
01:27 16.1 °C 8.1 °C 1021.7 hPa Calm   3.2 km/h 59% 0.0 mm 0 W/m2
01:32 15.8 °C 8.3 °C 1021.7 hPa WSW 1.4 km/h 1.6 km/h 61% 0.0 mm 0 W/m2
01:37 15.6 °C 8.1 °C 1021.7 hPa Calm     61% 0.0 mm 0 W/m2
01:42 15.3 °C 8.3 °C 1021.7 hPa Calm     63% 0.0 mm 0 W/m2
01:47 15.1 °C 7.9 °C 1021.7 hPa Calm     62% 0.0 mm 0 W/m2
01:52 14.9 °C 8.1 °C 1021.7 hPa Calm     64% 0.0 mm 0 W/m2
01:57 14.6 °C 7.9 °C 1021.7 hPa WSW 1.4 km/h 3.2 km/h 64% 0.0 mm 0 W/m2
02:02 14.4 °C 7.9 °C 1021.7 hPa Calm     65% 0.0 mm 0 W/m2
02:07 14.3 °C 8 °C 1021.3 hPa Calm   3.2 km/h 66% 0.0 mm 0 W/m2
02:12 14.2 °C 7.9 °C 1021.3 hPa WSW 1.4 km/h 1.6 km/h 66% 0.0 mm 0 W/m2
02:17 14 °C 7.7 °C 1021.3 hPa Calm   3.2 km/h 66% 0.0 mm 0 W/m2
02:22 13.8 °C 7.6 °C 1021.3 hPa WSW 3.2 km/h 3.2 km/h 66% 0.0 mm 0 W/m2
02:27 13.6 °C 7.4 °C 1021.3 hPa Calm     66% 0.0 mm 0 W/m2
02:32 13.5 °C 7.5 °C 1021.3 hPa Calm     67% 0.0 mm 0 W/m2
02:37 13.3 °C 7.1 °C 1021.3 hPa Calm   1.6 km/h 66% 0.0 mm 0 W/m2
02:42 13.3 °C 7.1 °C 1021.3 hPa WSW 3.2 km/h 3.2 km/h 66% 0.0 mm 0 W/m2
02:47 13.2 °C 6.5 °C 1021.3 hPa West 3.2 km/h 4.8 km/h 64% 0.0 mm 0 W/m2
02:52 13.5 °C 6.4 °C 1021.3 hPa Calm   3.2 km/h 62% 0.0 mm 0 W/m2
02:57 13.6 °C 6.5 °C 1021.3 hPa Calm     62% 0.0 mm 0 W/m2
03:02 13.6 °C 6.7 °C 1021.3 hPa Calm   1.6 km/h 63% 0.0 mm 0 W/m2
03:07 13.6 °C 6.9 °C 1021.3 hPa Calm     64% 0.0 mm 0 W/m2
03:12 13.4 °C 6.7 °C 1021.3 hPa Calm     64% 0.0 mm 0 W/m2
03:17 13.2 °C 6.8 °C 1021.3 hPa Calm   1.6 km/h 65% 0.0 mm 0 W/m2
03:22 13 °C 6.8 °C 1021.3 hPa Calm     66% 0.0 mm 0 W/m2
03:27 12.8 °C 6.6 °C 1021.3 hPa Calm   1.6 km/h 66% 0.0 mm 0 W/m2
03:32 12.7 °C 6.7 °C 1021.3 hPa Calm   1.6 km/h 67% 0.0 mm 0 W/m2
03:37 12.5 °C 6.5 °C 1021.3 hPa West 1.4 km/h 3.2 km/h 67% 0.0 mm 0 W/m2
03:42 12.4 °C 6.4 °C 1021.3 hPa Calm     67% 0.0 mm 0 W/m2
03:47 12.2 °C 6.5 °C 1021.3 hPa Calm   3.2 km/h 68% 0.0 mm 0 W/m2
03:52 12.1 °C 6.4 °C 1021.3 hPa Calm     68% 0.0 mm 0 W/m2
03:57 11.9 °C 6.4 °C 1021.3 hPa Calm     69% 0.0 mm 0 W/m2
04:02 11.8 °C 6.5 °C 1021.3 hPa Calm   3.2 km/h 70% 0.0 mm 0 W/m2
04:07 11.6 °C 6.3 °C 1021.3 hPa Calm     70% 0.0 mm 0 W/m2
04:12 11.6 °C 6.3 °C 1021.3 hPa Calm   3.2 km/h 70% 0.0 mm 0 W/m2
04:17 11.5 °C 6.2 °C 1021.3 hPa Calm   1.6 km/h 70% 0.0 mm 0 W/m2
04:22 11.4 °C 6.1 °C 1021.3 hPa Calm     70% 0.0 mm 0 W/m2
04:27 11.3 °C 6.2 °C 1021.3 hPa Calm     71% 0.0 mm 0 W/m2
04:32 11.2 °C 6.1 °C 1021.3 hPa Calm     71% 0.0 mm 0 W/m2
04:37 11.1 °C 6 °C 1021.3 hPa Calm     71% 0.0 mm 0 W/m2
04:42 10.9 °C 5.8 °C 1021.3 hPa Calm     71% 0.0 mm 0 W/m2
04:47 10.9 °C 6.1 °C 1021.3 hPa Calm     72% 0.0 mm 0 W/m2
04:52 10.8 °C 6 °C 1021.3 hPa Calm     72% 0.0 mm 0 W/m2
04:57 10.8 °C 6 °C 1021.3 hPa Calm     72% 0.0 mm 0 W/m2
05:02 10.7 °C 5.9 °C 1021.3 hPa Calm     72% 0.0 mm 0 W/m2
05:07 10.6 °C 5.8 °C 1021.3 hPa Calm     72% 0.0 mm 0 W/m2
05:12 10.4 °C 5.6 °C 1021.3 hPa Calm     72% 0.0 mm 0 W/m2
05:17 10.3 °C 5.7 °C 1021.3 hPa Calm     73% 0.0 mm 0 W/m2
05:22 10.2 °C 5.6 °C 1021.0 hPa Calm     73% 0.0 mm 0 W/m2
05:27 10.1 °C 5.5 °C 1021.3 hPa Calm     73% 0.0 mm 0 W/m2
05:32 10 °C 5.4 °C 1021.3 hPa Calm     73% 0.0 mm 0 W/m2
05:37 9.8 °C 5.4 °C 1021.3 hPa Calm     74% 0.0 mm 0 W/m2
05:43 9.8 °C 5.4 °C 1021.3 hPa Calm     74% 0.0 mm 0 W/m2
05:48 9.7 °C 5.3 °C 1021.3 hPa Calm   3.2 km/h 74% 0.0 mm 5 W/m2
05:53 9.7 °C 5.3 °C 1021.0 hPa Calm     74% 0.0 mm 7 W/m2
05:58 9.6 °C 5.2 °C 1021.3 hPa Calm   3.2 km/h 74% 0.0 mm 9 W/m2
06:03 9.6 °C 5.2 °C 1021.3 hPa Calm     74% 0.0 mm 12 W/m2
06:08 9.6 °C 5.4 °C 1021.3 hPa Calm   1.6 km/h 75% 0.0 mm 14 W/m2
06:13 9.7 °C 5.5 °C 1021.3 hPa Calm   1.6 km/h 75% 0.0 mm 16 W/m2
06:18 9.7 °C 5.5 °C 1021.3 hPa Calm     75% 0.0 mm 18 W/m2
06:23 9.7 °C 5.7 °C 1021.0 hPa Calm     76% 0.0 mm 21 W/m2
06:28 9.6 °C 5.6 °C 1021.3 hPa Calm     76% 0.0 mm 23 W/m2
06:33 9.6 °C 5.8 °C 1021.3 hPa Calm     77% 0.0 mm 25 W/m2
06:38 9.7 °C 5.9 °C 1021.3 hPa Calm     77% 0.0 mm 25 W/m2
06:43 9.7 °C 5.9 °C 1021.3 hPa Calm     77% 0.0 mm 26 W/m2
06:48 9.8 °C 6 °C 1021.3 hPa Calm     77% 0.0 mm 28 W/m2
06:53 9.9 °C 6.2 °C 1021.3 hPa Calm     78% 0.0 mm 28 W/m2
06:58 9.9 °C 6.2 °C 1021.3 hPa Calm     78% 0.0 mm 30 W/m2
07:03 10 °C 6.3 °C 1021.3 hPa Calm     78% 0.0 mm 32 W/m2
07:08 10.1 °C 6.3 °C 1021.3 hPa Calm   1.6 km/h 77% 0.0 mm 32 W/m2
07:13 10.3 °C 6.4 °C 1021.3 hPa Calm   1.6 km/h 77% 0.0 mm 33 W/m2
07:18 10.4 °C 6.4 °C 1021.3 hPa Calm     76% 0.0 mm 33 W/m2
07:23 10.6 °C 6.5 °C 1021.3 hPa Calm     76% 0.0 mm 33 W/m2
07:28 10.7 °C 6.6 °C 1021.3 hPa Calm     76% 0.0 mm 35 W/m2
07:33 10.9 °C 6.8 °C 1021.3 hPa Calm   1.6 km/h 76% 0.0 mm 35 W/m2
07:38 11.1 °C 6.8 °C 1021.3 hPa Calm   1.6 km/h 75% 0.0 mm 37 W/m2
07:43 11.4 °C 6.9 °C 1021.3 hPa Calm   3.2 km/h 74% 0.0 mm 39 W/m2
07:48 11.7 °C 7 °C 1021.3 hPa Calm     73% 0.0 mm 255 W/m2
07:53 12 °C 7.1 °C 1021.3 hPa Calm   3.2 km/h 72% 0.0 mm 271 W/m2
07:58 12.6 °C 7.5 °C 1021.3 hPa Calm   1.6 km/h 71% 0.0 mm 281 W/m2
08:03 13.2 °C 7.6 °C 1021.3 hPa Calm     69% 0.0 mm 297 W/m2
08:08 13.9 °C 7.9 °C 1021.3 hPa WSW 1.6 km/h 1.6 km/h 67% 0.0 mm 311 W/m2
08:13 14.6 °C 8.1 °C 1021.3 hPa Calm     65% 0.0 mm 323 W/m2
08:18 15.1 °C 8.3 °C 1021.3 hPa Calm     64% 0.0 mm 338 W/m2
08:23 15.7 °C 8.7 °C 1021.3 hPa Calm   1.6 km/h 63% 0.0 mm 350 W/m2
08:28 16.2 °C 8.7 °C 1021.3 hPa Calm   1.6 km/h 61% 0.0 mm 364 W/m2
08:33 16.6 °C 8.6 °C 1021.3 hPa WSW 1.4 km/h 1.6 km/h 59% 0.0 mm 376 W/m2
08:38 16.6 °C 8.3 °C 1021.3 hPa WNW 1.4 km/h 1.6 km/h 58% 0.0 mm 388 W/m2
08:43 16.9 °C 8.3 °C 1021.3 hPa Calm   1.6 km/h 57% 0.0 mm 399 W/m2
08:48 17.2 °C 8.1 °C 1021.3 hPa Calm   3.2 km/h 55% 0.0 mm 410 W/m2
08:53 17.4 °C 7.7 °C 1021.3 hPa Calm   1.6 km/h 53% 0.0 mm 424 W/m2
08:58 17.4 °C 7.7 °C 1021.3 hPa Calm   3.2 km/h 53% 0.0 mm 438 W/m2
09:03 17.5 °C 7.5 °C 1021.3 hPa Calm   1.6 km/h 52% 0.0 mm 448 W/m2
09:08 17.4 °C 7.4 °C 1021.3 hPa NE 3.2 km/h 6.4 km/h 52% 0.0 mm 459 W/m2
09:13 17.6 °C 7.6 °C 1021.3 hPa Calm   4.8 km/h 52% 0.0 mm 473 W/m2
09:18 17.9 °C 7.9 °C 1021.7 hPa ENE 1.4 km/h 3.2 km/h 52% 0.0 mm 485 W/m2
09:23 18.1 °C 7.8 °C 1021.3 hPa Calm   1.6 km/h 51% 0.0 mm 496 W/m2
09:28 18.3 °C 8 °C 1021.3 hPa Calm   3.2 km/h 51% 0.0 mm 504 W/m2
09:33 18.4 °C 7.8 °C 1021.3 hPa Calm   3.2 km/h 50% 0.0 mm 520 W/m2
09:38 18.6 °C 8.6 °C 1021.3 hPa ESE 1.4 km/h 3.2 km/h 52% 0.0 mm 534 W/m2
09:43 18.9 °C 8.2 °C 1021.3 hPa ENE 3.2 km/h 3.2 km/h 50% 0.0 mm 545 W/m2
09:48 19.1 °C 8.4 °C 1021.3 hPa East 1.4 km/h 3.2 km/h 50% 0.0 mm 561 W/m2
09:53 19.3 °C 8.6 °C 1021.3 hPa Calm   3.2 km/h 50% 0.0 mm 570 W/m2
09:58 19.6 °C 8.9 °C 1021.3 hPa ENE 3.2 km/h 4.8 km/h 50% 0.0 mm 582 W/m2
10:03 19.6 °C 8.3 °C 1021.3 hPa ENE 4.7 km/h 4.8 km/h 48% 0.0 mm 594 W/m2
10:08 19.6 °C 8.3 °C 1021.3 hPa SE 1.4 km/h 4.8 km/h 48% 0.0 mm 605 W/m2
10:13 19.7 °C 8.1 °C 1021.3 hPa NNW 1.4 km/h 4.8 km/h 47% 0.0 mm 608 W/m2
10:18 19.7 °C 8.1 °C 1021.3 hPa East 3.2 km/h 6.4 km/h 47% 0.0 mm 54 W/m2
10:23 19.8 °C 7.8 °C 1021.3 hPa Calm   4.8 km/h 46% 0.0 mm 636 W/m2
10:29 19.9 °C 8.6 °C 1021.0 hPa North 1.4 km/h 3.2 km/h 48% 0.0 mm 645 W/m2
10:34 20.1 °C 7.8 °C 1021.3 hPa North 3.2 km/h 6.4 km/h 45% 0.0 mm 656 W/m2
10:39 20 °C 8 °C 1021.3 hPa East 1.4 km/h 6.4 km/h 46% 0.0 mm 666 W/m2
10:44 20.1 °C 7.8 °C 1021.3 hPa ENE 3.2 km/h 4.8 km/h 45% 0.0 mm 673 W/m2
10:49 20.3 °C 8.3 °C 1021.3 hPa East 3.2 km/h 4.8 km/h 46% 0.0 mm 684 W/m2
10:54 20.7 °C 8 °C 1021.0 hPa NNE 3.2 km/h 3.2 km/h 44% 0.0 mm 696 W/m2
10:59 20.9 °C 7.5 °C 1021.0 hPa East 3.2 km/h 9.7 km/h 42% 0.0 mm 703 W/m2
11:04 20.9 °C 7.9 °C 1021.0 hPa ESE 3.2 km/h 4.8 km/h 43% 0.0 mm 712 W/m2
11:09 21.3 °C 7.9 °C 1021.0 hPa SE 4.7 km/h 6.4 km/h 42% 0.0 mm 719 W/m2
11:14 21.6 °C 7.4 °C 1021.0 hPa ESE 1.4 km/h 4.8 km/h 40% 0.0 mm 729 W/m2
11:19 21.9 °C 6.9 °C 1021.0 hPa ESE 4.7 km/h 6.4 km/h 38% 0.0 mm 738 W/m2
11:24 21.9 °C 6.9 °C 1021.0 hPa NE 7.9 km/h 8 km/h 38% 0.0 mm 749 W/m2
11:29 21.9 °C 6.2 °C 1021.0 hPa NW 1.4 km/h 6.4 km/h 36% 0.0 mm 752 W/m2
11:34 21.9 °C 5.7 °C 1021.0 hPa West 1.4 km/h 4.8 km/h 35% 0.0 mm 754 W/m2
11:39 22.1 °C 5.9 °C 1021.0 hPa Calm   1.6 km/h 35% 0.0 mm 765 W/m2
11:44 22.3 °C 5.7 °C 1021.0 hPa WNW 3.2 km/h 9.7 km/h 34% 0.0 mm 768 W/m2
11:49 22.3 °C 6.1 °C 1021.0 hPa ENE 4.7 km/h 12.9 km/h 35% 0.0 mm 777 W/m2
11:54 22.4 °C 4.4 °C 1021.0 hPa WNW 3.2 km/h 4.8 km/h 31% 0.0 mm 775 W/m2
11:59 22.4 °C 4.9 °C 1021.0 hPa NE 3.2 km/h 6.4 km/h 32% 0.0 mm 784 W/m2
12:04 22.6 °C 5.5 °C 1020.7 hPa West 3.2 km/h 3.2 km/h 33% 0.0 mm 789 W/m2
12:09 22.7 °C 5.6 °C 1020.7 hPa Calm   3.2 km/h 33% 0.0 mm 789 W/m2
12:14 22.8 °C 5.7 °C 1020.7 hPa WSW 3.2 km/h 4.8 km/h 33% 0.0 mm 796 W/m2
12:19 22.9 °C 7 °C 1020.7 hPa WSW 1.4 km/h 3.2 km/h 36% 0.0 mm 802 W/m2
12:24 23.2 °C 6 °C 1020.7 hPa SSE 1.4 km/h 3.2 km/h 33% 0.0 mm 805 W/m2
12:29 23.2 °C 5.1 °C 1020.7 hPa NNE 1.4 km/h 4.8 km/h 31% 0.0 mm 802 W/m2
12:34 23.3 °C 6.1 °C 1020.7 hPa East 1.4 km/h 4.8 km/h 33% 0.0 mm 805 W/m2
12:39 23.4 °C 6.6 °C 1020.7 hPa Calm   3.2 km/h 34% 0.0 mm 809 W/m2
12:44 23.4 °C 6.6 °C 1020.7 hPa SSE 1.4 km/h 6.4 km/h 34% 0.0 mm 814 W/m2
12:49 23.6 °C 5 °C 1020.7 hPa NNW 1.4 km/h 4.8 km/h 30% 0.0 mm 819 W/m2
12:54 23.4 °C 5.3 °C 1020.7 hPa NW 3.2 km/h 4.8 km/h 31% 0.0 mm 821 W/m2
12:59 23.3 °C 4.7 °C 1020.7 hPa WNW 9.7 km/h 9.7 km/h 30% 0.0 mm 823 W/m2
13:04 23.3 °C 3.8 °C 1020.7 hPa WNW 6.4 km/h 14.5 km/h 28% 0.0 mm 828 W/m2
13:09 23.3 °C 4.7 °C 1020.3 hPa ENE 1.4 km/h 8 km/h 30% 0.0 mm 826 W/m2
13:14 23.4 °C 3.9 °C 1020.3 hPa ENE 4.7 km/h 12.9 km/h 28% 0.0 mm 828 W/m2
13:19 23.7 °C 4.6 °C 1020.3 hPa WNW 6.4 km/h 9.7 km/h 29% 0.0 mm 831 W/m2
13:24 23.7 °C 4.6 °C 1020.3 hPa WNW 4.7 km/h 6.4 km/h 29% 0.0 mm 831 W/m2
13:29 23.8 °C 5.2 °C 1020.3 hPa NW 3.2 km/h 8 km/h 30% 0.0 mm 830 W/m2
13:34 23.9 °C 4.8 °C 1020.0 hPa NW 4.7 km/h 12.9 km/h 29% 0.0 mm 831 W/m2
13:39 23.8 °C 5.2 °C 1020.0 hPa NW 4.7 km/h 4.8 km/h 30% 0.0 mm 828 W/m2
13:44 23.9 °C 5.7 °C 1020.0 hPa ENE 1.4 km/h 3.2 km/h 31% 0.0 mm 828 W/m2
13:49 24.1 °C 5.4 °C 1020.0 hPa ENE 6.4 km/h 8 km/h 30% 0.0 mm 830 W/m2
13:54 24.3 °C 5.6 °C 1020.0 hPa NW 4.7 km/h 9.7 km/h 30% 0.0 mm 826 W/m2
13:59 24.3 °C 6.5 °C 1020.0 hPa West 11.1 km/h 11.3 km/h 32% 0.0 mm 821 W/m2
14:04 24.3 °C 5.6 °C 1020.0 hPa WNW 4.7 km/h 9.7 km/h 30% 0.0 mm 821 W/m2
14:09 24.3 °C 6.1 °C 1020.0 hPa ENE 1.4 km/h 4.8 km/h 31% 0.0 mm 819 W/m2
14:14 24.4 °C 5.2 °C 1019.6 hPa NNW 4.7 km/h 11.3 km/h 29% 0.0 mm 814 W/m2
14:19 24.4 °C 6.2 °C 1019.6 hPa WSW 1.4 km/h 4.8 km/h 31% 0.0 mm 812 W/m2
14:24 24.6 °C 5.4 °C 1019.6 hPa WNW 3.2 km/h 12.9 km/h 29% 0.0 mm 807 W/m2
14:29 24.8 °C 7 °C 1019.6 hPa Calm   3.2 km/h 32% 0.0 mm 803 W/m2
14:34 24.8 °C 6 °C 1019.6 hPa North 4.7 km/h 6.4 km/h 30% 0.0 mm 798 W/m2
14:39 24.8 °C 5.6 °C 1019.6 hPa NW 6.4 km/h 9.7 km/h 29% 0.0 mm 796 W/m2
14:44 24.6 °C 5.9 °C 1019.6 hPa WSW 6.4 km/h 12.9 km/h 30% 0.0 mm 789 W/m2
14:50 24.6 °C 5.9 °C 1019.6 hPa West 6.4 km/h 9.7 km/h 30% 0.0 mm 784 W/m2
14:55 24.7 °C 6 °C 1019.6 hPa WSW 6.4 km/h 16.1 km/h 30% 0.0 mm 782 W/m2
15:00 24.7 °C 5 °C 1019.6 hPa WNW 7.9 km/h 9.7 km/h 28% 0.0 mm 777 W/m2
15:05 24.6 °C 4.4 °C 1019.6 hPa West 3.2 km/h 4.8 km/h 27% 0.0 mm 772 W/m2
15:10 24.6 °C 5.4 °C 1019.3 hPa WNW 6.4 km/h 14.5 km/h 29% 0.0 mm 768 W/m2
15:15 24.8 °C 4.5 °C 1019.3 hPa WNW 4.7 km/h 9.7 km/h 27% 0.0 mm 759 W/m2
15:20 24.9 °C 4.6 °C 1019.3 hPa NNW 1.4 km/h 14.5 km/h 27% 0.0 mm 756 W/m2
15:25 25 °C 5.7 °C 1019.3 hPa NW 3.2 km/h 4.8 km/h 29% 0.0 mm 745 W/m2
15:30 25.2 °C 6.4 °C 1019.3 hPa SW 1.4 km/h 8 km/h 30% 0.0 mm 742 W/m2
15:35 25.4 °C 5 °C 1019.3 hPa West 13 km/h 17.7 km/h 27% 0.0 mm 733 W/m2
15:40 25.4 °C 5.6 °C 1019.3 hPa WNW 4.7 km/h 4.8 km/h 28% 0.0 mm 726 W/m2
15:45 25.3 °C 5.5 °C 1019.3 hPa East 4.7 km/h 14.5 km/h 28% 0.0 mm 715 W/m2
15:50 25.3 °C 6.5 °C 1019.0 hPa NNW 7.9 km/h 12.9 km/h 30% 0.0 mm 708 W/m2
15:55 25.4 °C 7 °C 1019.0 hPa NNE 1.4 km/h 4.8 km/h 31% 0.0 mm 696 W/m2
16:00 25.7 °C 6.8 °C 1019.0 hPa SE 3.2 km/h 3.2 km/h 30% 0.0 mm 691 W/m2
16:05 25.8 °C 6.9 °C 1019.0 hPa NW 1.4 km/h 12.9 km/h 30% 0.0 mm 684 W/m2
16:10 25.8 °C 6.9 °C 1019.0 hPa WNW 11.1 km/h 11.3 km/h 30% 0.0 mm 675 W/m2
16:15 25.8 °C 7.4 °C 1019.0 hPa SW 4.7 km/h 9.7 km/h 31% 0.0 mm 664 W/m2
16:20 25.8 °C 6.9 °C 1019.0 hPa West 3.2 km/h 12.9 km/h 30% 0.0 mm 656 W/m2
16:25 25.8 °C 7.4 °C 1019.0 hPa NW 7.9 km/h 12.9 km/h 31% 0.0 mm 645 W/m2
16:30 25.7 °C 7.3 °C 1019.0 hPa NNE 4.7 km/h 11.3 km/h 31% 0.0 mm 635 W/m2
16:35 25.7 °C 7.3 °C 1019.0 hPa West 6.4 km/h 9.7 km/h 31% 0.0 mm 626 W/m2
16:41 25.9 °C 6.5 °C 1019.0 hPa WNW 7.9 km/h 12.9 km/h 29% 0.0 mm 615 W/m2
16:46 25.9 °C 7 °C 1019.0 hPa NNE 1.4 km/h 3.2 km/h 30% 0.0 mm 601 W/m2
16:51 26.1 °C 6.7 °C 1019.0 hPa WNW 9.7 km/h 12.9 km/h 29% 0.0 mm 591 W/m2
16:56 26.2 °C 6.8 °C 1018.6 hPa WSW 4.7 km/h 14.5 km/h 29% 0.0 mm 582 W/m2
17:01 26.1 °C 7.6 °C 1018.6 hPa NE 4.7 km/h 4.8 km/h 31% 0.0 mm 570 W/m2
17:06 26.1 °C 6.7 °C 1018.6 hPa NNW 4.7 km/h 6.4 km/h 29% 0.0 mm 559 W/m2
17:11 26.3 °C 6.3 °C 1018.6 hPa WNW 6.4 km/h 14.5 km/h 28% 0.0 mm 547 W/m2
17:16 26.1 °C 6.7 °C 1018.6 hPa West 1.4 km/h 6.4 km/h 29% 0.0 mm 531 W/m2
17:21 26.2 °C 7.3 °C 1018.6 hPa WSW 6.4 km/h 6.4 km/h 30% 0.0 mm 526 W/m2
17:26 26.2 °C 6.8 °C 1018.3 hPa West 4.7 km/h 4.8 km/h 29% 0.0 mm 510 W/m2
17:31 26.2 °C 7.3 °C 1018.3 hPa WNW 3.2 km/h 8 km/h 30% 0.0 mm 497 W/m2
17:36 26.3 °C 7.3 °C 1018.3 hPa WSW 7.9 km/h 9.7 km/h 30% 0.0 mm 483 W/m2
17:41 26.3 °C 7.8 °C 1018.3 hPa NW 4.7 km/h 8 km/h 31% 0.0 mm 471 W/m2
17:46 26.4 °C 7.4 °C 1018.3 hPa West 6.4 km/h 11.3 km/h 30% 0.0 mm 457 W/m2
17:51 26.3 °C 7.3 °C 1018.3 hPa West 9.7 km/h 12.9 km/h 30% 0.0 mm 446 W/m2
17:56 26.3 °C 7.8 °C 1018.3 hPa NNE 6.4 km/h 11.3 km/h 31% 0.0 mm 431 W/m2
18:01 26.4 °C 7.4 °C 1018.3 hPa NNW 9.7 km/h 9.7 km/h 30% 0.0 mm 420 W/m2
18:06 26.4 °C 7.9 °C 1018.3 hPa East 3.2 km/h 8 km/h 31% 0.0 mm 411 W/m2
18:12 26.5 °C 7.5 °C 1018.3 hPa West 9.7 km/h 9.7 km/h 30% 0.0 mm 396 W/m2
18:17 26.4 °C 7.4 °C 1018.3 hPa West 6.4 km/h 16.1 km/h 30% 0.0 mm 383 W/m2
18:22 26.3 °C 7.3 °C 1018.3 hPa North 6.4 km/h 9.7 km/h 30% 0.0 mm 369 W/m2
18:27 26.3 °C 7.8 °C 1018.3 hPa NE 3.2 km/h 16.1 km/h 31% 0.0 mm 359 W/m2
18:32 26.3 °C 7.8 °C 1018.3 hPa West 6.4 km/h 11.3 km/h 31% 0.0 mm 346 W/m2
18:37 26.2 °C 7.3 °C 1018.3 hPa WNW 6.4 km/h 14.5 km/h 30% 0.0 mm 332 W/m2
18:42 26 °C 7.1 °C 1018.3 hPa West 6.4 km/h 19.3 km/h 30% 0.0 mm 320 W/m2
18:47 25.8 °C 7.4 °C 1018.3 hPa ENE 3.2 km/h 4.8 km/h 31% 0.0 mm 308 W/m2
18:52 25.9 °C 7.5 °C 1018.3 hPa North 6.4 km/h 19.3 km/h 31% 0.0 mm 297 W/m2
18:57 26.1 °C 7.6 °C 1018.3 hPa ENE 7.9 km/h 16.1 km/h 31% 0.0 mm 279 W/m2
19:02 26.1 °C 7.2 °C 1018.3 hPa NW 3.2 km/h 8 km/h 30% 0.0 mm 267 W/m2
19:07 26 °C 7.6 °C 1018.3 hPa WNW 1.4 km/h 16.1 km/h 31% 0.0 mm 253 W/m2
19:12 25.8 °C 7.4 °C 1018.3 hPa WNW 4.7 km/h 9.7 km/h 31% 0.0 mm 241 W/m2
19:17 25.8 °C 7.4 °C 1018.3 hPa NW 3.2 km/h 16.1 km/h 31% 0.0 mm 230 W/m2
19:22 25.7 °C 7.3 °C 1018.3 hPa West 6.4 km/h 6.4 km/h 31% 0.0 mm 214 W/m2
19:27 25.6 °C 7.2 °C 1018.6 hPa WNW 13 km/h 12.9 km/h 31% 0.0 mm 204 W/m2
19:32 25.4 °C 7.5 °C 1018.3 hPa NNW 4.7 km/h 11.3 km/h 32% 0.0 mm 188 W/m2
19:37 25.4 °C 7 °C 1018.3 hPa West 4.7 km/h 12.9 km/h 31% 0.0 mm 171 W/m2
19:42 25.3 °C 7 °C 1018.3 hPa NNW 9.7 km/h 17.7 km/h 31% 0.0 mm 156 W/m2
19:47 25.3 °C 7.4 °C 1018.3 hPa WSW 3.2 km/h 12.9 km/h 32% 0.0 mm 144 W/m2
19:52 25.2 °C 7.8 °C 1018.3 hPa West 3.2 km/h 14.5 km/h 33% 0.0 mm 128 W/m2
19:57 25.2 °C 7.8 °C 1018.3 hPa West 1.4 km/h 4.8 km/h 33% 0.0 mm 116 W/m2
20:02 25.2 °C 8.2 °C 1018.3 hPa WNW 9.7 km/h 14.5 km/h 34% 0.0 mm 104 W/m2
20:07 25 °C 8.9 °C 1018.3 hPa WNW 4.7 km/h 6.4 km/h 36% 0.0 mm 93 W/m2
20:12 24.9 °C 9.2 °C 1018.3 hPa NW 1.4 km/h 4.8 km/h 37% 0.0 mm 77 W/m2
20:17 24.8 °C 9.1 °C 1018.3 hPa NNW 3.2 km/h 9.7 km/h 37% 0.0 mm 69 W/m2
20:22 24.6 °C 9.3 °C 1018.6 hPa West 6.4 km/h 11.3 km/h 38% 0.0 mm 58 W/m2
20:27 24.4 °C 9.5 °C 1018.6 hPa WNW 4.7 km/h 6.4 km/h 39% 0.0 mm 49 W/m2
20:32 24.3 °C 9.8 °C 1018.3 hPa WNW 1.4 km/h 9.7 km/h 40% 0.0 mm 40 W/m2
20:37 24.1 °C 9.7 °C 1018.6 hPa West 4.7 km/h 11.3 km/h 40% 0.0 mm 33 W/m2
20:42 24 °C 9.9 °C 1018.6 hPa West 4.7 km/h 8 km/h 41% 0.0 mm 26 W/m2
20:47 23.8 °C 10.1 °C 1018.6 hPa WNW 3.2 km/h 6.4 km/h 42% 0.0 mm 21 W/m2
20:52 23.6 °C 10.3 °C 1018.6 hPa WNW 3.2 km/h 9.7 km/h 43% 0.0 mm 18 W/m2
20:57 23.4 °C 10.8 °C 1018.6 hPa WNW 4.7 km/h 8 km/h 45% 0.0 mm 14 W/m2
21:02 23.1 °C 10.8 °C 1018.6 hPa West 4.7 km/h 8 km/h 46% 0.0 mm 12 W/m2
21:07 22.8 °C 11.2 °C 1018.6 hPa NW 4.7 km/h 6.4 km/h 48% 0.0 mm 9 W/m2
21:12 22.6 °C 11.3 °C 1018.6 hPa WNW 4.7 km/h 12.9 km/h 49% 0.0 mm 7 W/m2
21:17 22.4 °C 11.5 °C 1019.0 hPa WSW 4.7 km/h 6.4 km/h 50% 0.0 mm 5 W/m2
21:22 22.3 °C 11.7 °C 1019.0 hPa WNW 14.3 km/h 14.5 km/h 51% 0.0 mm 0 W/m2
21:27 22.2 °C 11.6 °C 1019.0 hPa WNW 1.4 km/h 6.4 km/h 51% 0.0 mm 0 W/m2
21:32 22.1 °C 11.5 °C 1019.0 hPa West 6.4 km/h 11.3 km/h 51% 0.0 mm 0 W/m2
21:37 22 °C 11.4 °C 1019.0 hPa WNW 1.4 km/h 8 km/h 51% 0.0 mm 0 W/m2
21:42 21.9 °C 11.6 °C 1019.0 hPa WNW 3.2 km/h 9.7 km/h 52% 0.0 mm 0 W/m2
21:47 21.8 °C 11.5 °C 1019.0 hPa West 6.4 km/h 8 km/h 52% 0.0 mm 0 W/m2
21:52 21.6 °C 11.6 °C 1019.3 hPa NW 3.2 km/h 14.5 km/h 53% 0.0 mm 0 W/m2
21:57 21.5 °C 11.5 °C 1019.3 hPa WNW 1.4 km/h 6.4 km/h 53% 0.0 mm 0 W/m2
22:02 21.4 °C 11.7 °C 1019.3 hPa NW 3.2 km/h 14.5 km/h 54% 0.0 mm 0 W/m2
22:07 21.3 °C 11.6 °C 1019.3 hPa North 3.2 km/h 8 km/h 54% 0.0 mm 0 W/m2
22:12 21.2 °C 11.5 °C 1019.3 hPa NW 3.2 km/h 11.3 km/h 54% 0.0 mm 0 W/m2
22:17 21.2 °C 11.5 °C 1019.3 hPa North 11.1 km/h 11.3 km/h 54% 0.0 mm 0 W/m2
22:22 21.1 °C 11.7 °C 1019.6 hPa NW 4.7 km/h 6.4 km/h 55% 0.0 mm 0 W/m2
22:28 21 °C 11.6 °C 1019.6 hPa WNW 3.2 km/h 3.2 km/h 55% 0.0 mm 0 W/m2
22:33 20.9 °C 11.5 °C 1019.6 hPa NNW 1.4 km/h 12.9 km/h 55% 0.0 mm 0 W/m2
22:38 20.8 °C 11.4 °C 1019.6 hPa NW 1.4 km/h 3.2 km/h 55% 0.0 mm 0 W/m2
22:43 20.8 °C 11.7 °C 1019.6 hPa West 3.2 km/h 4.8 km/h 56% 0.0 mm 0 W/m2
22:48 20.7 °C 11.6 °C 1019.6 hPa WNW 3.2 km/h 9.7 km/h 56% 0.0 mm 0 W/m2
22:53 20.6 °C 11.8 °C 1019.6 hPa NW 6.4 km/h 8 km/h 57% 0.0 mm 0 W/m2
22:58 20.6 °C 11.8 °C 1019.6 hPa NNE 6.4 km/h 8 km/h 57% 0.0 mm 0 W/m2
23:03 20.6 °C 11.8 °C 1019.6 hPa West 3.2 km/h 8 km/h 57% 0.0 mm 0 W/m2
23:08 20.6 °C 11.8 °C 1019.6 hPa WNW 3.2 km/h 9.7 km/h 57% 0.0 mm 0 W/m2
23:13 20.6 °C 11.8 °C 1019.6 hPa NNW 4.7 km/h 8 km/h 57% 0.0 mm 0 W/m2
23:18 20.5 °C 11.7 °C 1019.6 hPa WNW 6.4 km/h 8 km/h 57% 0.0 mm 0 W/m2
23:23 20.6 °C 11.8 °C 1020.0 hPa West 4.7 km/h 9.7 km/h 57% 0.0 mm 0 W/m2
23:28 20.4 °C 11.9 °C 1020.0 hPa WNW 3.2 km/h 8 km/h 58% 0.0 mm 0 W/m2
23:33 20.3 °C 11.8 °C 1020.0 hPa WNW 3.2 km/h 9.7 km/h 58% 0.0 mm 0 W/m2
23:38 20.3 °C 11.8 °C 1020.0 hPa WNW 1.4 km/h 4.8 km/h 58% 0.0 mm 0 W/m2
23:43 20.2 °C 11.9 °C 1020.0 hPa WNW 3.2 km/h 9.7 km/h 59% 0.0 mm 0 W/m2
23:48 20.1 °C 11.8 °C 1020.0 hPa NW 1.4 km/h 3.2 km/h 59% 0.0 mm 0 W/m2
23:53 19.9 °C 11.9 °C 1020.0 hPa WNW 3.2 km/h 9.7 km/h 60% 0.0 mm 0 W/m2
23:58 19.9 °C 11.9 °C 1020.0 hPa NNW 4.7 km/h 8 km/h 60% 0.0 mm 0 W/m2
Juneau County Weather
Compliments of Weather Underground - 2 mb